• In Germany
  • List of Countries
  • For 7 days
  • Water Temperature
  • Satellite Maps
  • Weather Map
  • Weather Widgets
  • user-avatar
    Login

    Hourly Weather Madingou

    Today, 17 August, Thursday

    Time Temperature Precipitation Wind Pressure Humidity
    00:00 +26°C° 0 mm 2 mps 745 mmHg 73%
    01:00 +24°C° 0 mm 2 mps 746 mmHg 77%
    02:00 +24°C° 0 mm 2 mps 745 mmHg 78%
    03:00 +24°C° 0 mm 2 mps 745 mmHg 79%
    04:00 +24°C° 0 mm 2 mps 745 mmHg 81%
    05:00 +24°C° 0 mm 2 mps 745 mmHg 80%
    06:00 +24°C° 0 mm 2 mps 746 mmHg 79%
    07:00 +24°C° 0 mm 2 mps 746 mmHg 80%
    08:00 +25°C° 0 mm 2 mps 746 mmHg 76%
    09:00 +25°C° 0 mm 2 mps 746 mmHg 73%
    10:00 +26°C° 0 mm 2 mps 746 mmHg 69%
    11:00 +28°C° 0 mm 2 mps 746 mmHg 61%
    12:00 +30°C° 0 mm 2 mps 745 mmHg 52%
    13:00 +34°C° 0 mm 3 mps 745 mmHg 42%
    14:00 +34°C° 0 mm 3 mps 744 mmHg 41%
    15:00 +34°C° 0 mm 3 mps 744 mmHg 39%
    16:00 +35°C° 0 mm 3 mps 743 mmHg 38%
    17:00 +34°C° 0 mm 3 mps 744 mmHg 42%
    18:00 +31°C° 0 mm 3 mps 744 mmHg 47%
    19:00 +30°C° 0 mm 3 mps 744 mmHg 51%
    20:00 +29°C° 0 mm 3 mps 745 mmHg 56%
    21:00 +28°C° 0 mm 3 mps 745 mmHg 61%
    22:00 +27°C° 0 mm 3 mps 746 mmHg 65%
    23:00 +26°C° 0 mm 3 mps 746 mmHg 69%

    Tomorrow, 18 August, Friday

    Time Temperature Precipitation Wind Pressure Humidity
    00:00 +25°C° 0 mm 3 mps 746 mmHg 72%
    01:00 +24°C° 0 mm 3 mps 746 mmHg 75%
    02:00 +24°C° 0 mm 3 mps 745 mmHg 77%
    03:00 +24°C° 0 mm 2 mps 745 mmHg 79%
    04:00 +23°C° 0 mm 2 mps 745 mmHg 81%
    05:00 +23°C° 0 mm 2 mps 745 mmHg 80%
    06:00 +24°C° 0 mm 2 mps 746 mmHg 80%
    07:00 +24°C° 0 mm 2 mps 746 mmHg 79%
    08:00 +25°C° 0 mm 2 mps 746 mmHg 74%
    09:00 +26°C° 0 mm 2 mps 746 mmHg 68%
    10:00 +27°C° 0 mm 2 mps 746 mmHg 63%
    11:00 +29°C° 0 mm 2 mps 746 mmHg 54%
    12:00 +32°C° 0 mm 2 mps 745 mmHg 45%
    13:00 +35°C° 0 mm 2 mps 744 mmHg 36%
    14:00 +36°C° 0 mm 2 mps 744 mmHg 34%
    15:00 +36°C° 0 mm 2 mps 743 mmHg 32%
    16:00 +37°C° 0 mm 2 mps 742 mmHg 30%
    17:00 +36°C° 0 mm 2 mps 742 mmHg 33%
    18:00 +34°C° 0 mm 2 mps 743 mmHg 36%
    19:00 +32°C° 0 mm 2 mps 743 mmHg 39%
    20:00 +31°C° 0 mm 2 mps 744 mmHg 43%
    21:00 +30°C° 0 mm 2 mps 744 mmHg 46%
    22:00 +29°C° 0 mm 2 mps 745 mmHg 50%
    23:00 +28°C° 0 mm 2 mps 744 mmHg 54%

    Day after tomorrow, 19 August, Saturday

    Time Temperature Precipitation Wind Pressure Humidity
    00:00 +27°C° 0 mm 2 mps 744 mmHg 58%
    01:00 +27°C° 0 mm 2 mps 744 mmHg 61%
    02:00 +26°C° 0 mm 2 mps 744 mmHg 64%
    03:00 +25°C° 0 mm 2 mps 744 mmHg 68%
    04:00 +25°C° 0 mm 2 mps 744 mmHg 71%
    05:00 +24°C° 0 mm 2 mps 744 mmHg 72%
    06:00 +24°C° 0 mm 2 mps 745 mmHg 73%
    07:00 +24°C° 0 mm 2 mps 745 mmHg 74%
    08:00 +26°C° 0 mm 2 mps 746 mmHg 66%
    09:00 +28°C° 0 mm 2 mps 746 mmHg 58%
    10:00 +30°C° 0 mm 2 mps 747 mmHg 49%
    11:00 +31°C° 0 mm 2 mps 746 mmHg 46%
    12:00 +34°C° 0 mm 2 mps 745 mmHg 43%
    13:00 +35°C° 0 mm 2 mps 744 mmHg 39%
    14:00 +35°C° 0 mm 2 mps 744 mmHg 40%
    15:00 +34°C° 0 mm 2 mps 743 mmHg 41%
    16:00 +34°C° 0 mm 2 mps 743 mmHg 41%
    17:00 +32°C° 0 mm 2 mps 743 mmHg 44%
    18:00 +31°C° 0 mm 2 mps 744 mmHg 47%
    19:00 +31°C° 0 mm 2 mps 744 mmHg 50%
    20:00 +30°C° 0 mm 2 mps 745 mmHg 53%
    21:00 +29°C° 0 mm 3 mps 745 mmHg 57%
    22:00 +28°C° 0 mm 3 mps 746 mmHg 60%
    23:00 +27°C° 0 mm 3 mps 746 mmHg 64%

    20 August, Sunday

    Time Temperature Precipitation Wind Pressure Humidity
    00:00 +26°C° 0 mm 3 mps 746 mmHg 68%
    01:00 +25°C° 0 mm 3 mps 745 mmHg 72%
    02:00 +25°C° 0 mm 3 mps 745 mmHg 74%
    03:00 +24°C° 0 mm 3 mps 745 mmHg 75%
    04:00 +24°C° 0 mm 2 mps 745 mmHg 77%
    05:00 +24°C° 0 mm 2 mps 746 mmHg 77%
    06:00 +24°C° 0 mm 2 mps 747 mmHg 76%
    07:00 +24°C° 0 mm 2 mps 747 mmHg 76%
    08:00 +25°C° 0 mm 2 mps 748 mmHg 72%
    09:00 +26°C° 0 mm 2 mps 748 mmHg 68%
    10:00 +27°C° 0 mm 2 mps 748 mmHg 63%
    11:00 +28°C° 0 mm 2 mps 748 mmHg 60%
    12:00 +29°C° 0 mm 2 mps 747 mmHg 57%
    13:00 +30°C° 0 mm 2 mps 747 mmHg 53%
    14:00 +30°C° 0 mm 2 mps 746 mmHg 52%
    15:00 +30°C° 0 mm 2 mps 745 mmHg 51%
    16:00 +31°C° 0 mm 3 mps 745 mmHg 51%
    17:00 +30°C° 0 mm 3 mps 745 mmHg 53%
    18:00 +29°C° 0 mm 3 mps 746 mmHg 55%
    19:00 +28°C° 0 mm 3 mps 746 mmHg 57%
    20:00 +28°C° 0 mm 3 mps 747 mmHg 60%
    21:00 +27°C° 0 mm 3 mps 747 mmHg 62%
    22:00 +27°C° 0 mm 2 mps 748 mmHg 64%
    23:00 +26°C° 0 mm 2 mps 747 mmHg 67%

    21 August, Monday

    Time Temperature Precipitation Wind Pressure Humidity
    00:00 +25°C° 0 mm 2 mps 747 mmHg 69%
    01:00 +25°C° 0 mm 2 mps 747 mmHg 72%
    02:00 +25°C° 0 mm 2 mps 747 mmHg 73%
    03:00 +24°C° 0 mm 2 mps 747 mmHg 75%
    04:00 +24°C° 0 mm 2 mps 747 mmHg 76%
    05:00 +24°C° 0 mm 2 mps 747 mmHg 76%
    06:00 +24°C° 0 mm 2 mps 748 mmHg 77%
    07:00 +24°C° 0 mm 2 mps 748 mmHg 77%
    08:00 +25°C° 0 mm 2 mps 748 mmHg 71%
    09:00 +26°C° 0 mm 2 mps 748 mmHg 66%
    10:00 +27°C° 0 mm 3 mps 748 mmHg 60%
    11:00 +29°C° 0 mm 3 mps 747 mmHg 53%
    12:00 +31°C° 0 mm 3 mps 747 mmHg 47%
    13:00 +34°C° 0 mm 3 mps 746 mmHg 40%
    14:00 +34°C° 0 mm 4 mps 745 mmHg 39%
    15:00 +34°C° 0 mm 4 mps 744 mmHg 38%
    16:00 +34°C° 0 mm 4 mps 744 mmHg 37%
    17:00 +33°C° 0 mm 4 mps 744 mmHg 41%
    18:00 +30°C° 0 mm 4 mps 745 mmHg 44%
    19:00 +29°C° 0 mm 3 mps 746 mmHg 48%
    20:00 +28°C° 0 mm 3 mps 746 mmHg 53%
    21:00 +27°C° 0 mm 3 mps 747 mmHg 57%
    22:00 +26°C° 0 mm 3 mps 747 mmHg 62%
    23:00 +25°C° 0 mm 3 mps 747 mmHg 65%

    22 August, Tuesday

    Time Temperature Precipitation Wind Pressure Humidity
    00:00 +25°C° 0 mm 3 mps 747 mmHg 69%
    01:00 +24°C° 0 mm 3 mps 747 mmHg 72%
    02:00 +22°C° 0 mm 3 mps 746 mmHg 74%
    03:00 +22°C° 0 mm 3 mps 746 mmHg 77%
    04:00 +22°C° 0 mm 3 mps 746 mmHg 80%
    05:00 +22°C° 0 mm 3 mps 746 mmHg 80%
    06:00 +22°C° 0 mm 3 mps 747 mmHg 79%
    07:00 +22°C° 0 mm 3 mps 747 mmHg 79%
    08:00 +24°C° 0 mm 3 mps 747 mmHg 73%
    09:00 +25°C° 0 mm 3 mps 747 mmHg 67%
    10:00 +26°C° 0 mm 2 mps 747 mmHg 60%
    11:00 +28°C° 0 mm 3 mps 747 mmHg 51%
    12:00 +31°C° 0 mm 3 mps 746 mmHg 42%
    13:00 +34°C° 0 mm 3 mps 745 mmHg 32%
    14:00 +35°C° 0 mm 3 mps 744 mmHg 31%
    15:00 +35°C° 0 mm 3 mps 744 mmHg 30%
    16:00 +35°C° 0 mm 3 mps 743 mmHg 29%
    17:00 +34°C° 0 mm 3 mps 743 mmHg 32%
    18:00 +33°C° 0 mm 3 mps 744 mmHg 34%
    19:00 +31°C° 0 mm 2 mps 744 mmHg 37%
    20:00 +30°C° 0 mm 3 mps 745 mmHg 41%
    21:00 +29°C° 0 mm 3 mps 745 mmHg 45%
    22:00 +28°C° 0 mm 3 mps 745 mmHg 49%
    23:00 +27°C° 0 mm 3 mps 745 mmHg 53%
    Show more